Regional Weather Roundup
Issued by NWS

Home | Current Version | Previous Version | Text Only | Print | Product List | Glossary On
Versions: 1 2 3 4 5 6 7 8 9 10 11 12 13 14 15 16 17 18 19 20 21 22 23 24 25 26 27 28 29 30 31 32 33 34 35 36 37 38 39 40 41 42 43 44 45 46 47 48 49 50
000
ASUS46 KSEW 232010
RWRWA

WASHINGTON REGIONAL WEATHER ROUNDUP
NATIONAL WEATHER SERVICE SEATTLE WA
100 PM PDT WED JUL 23 2014

NOTE:"FAIR" INDICATES FEW OR NO CLOUDS BELOW 12,000 FEET WITH NO
SIGNIFICANT WEATHER AND/OR OBSTRUCTIONS TO VISIBILITY.

WAZ505-507>509-232100-
SEATTLE, TACOMA, EVERETT, AND VICINITY

CITY           SKY/WX    TMP DP  RH WIND       PRES   REMARKS
EVERETT        RAIN      60  58  92 SE5       30.00F FOG
BOEING FIELD   LGT RAIN  62  56  80 VRB7      30.01R
RENTON         LGT RAIN  61  58  90 S6        30.02R FOG
SEATAC AIRPORT LGT RAIN  59  57  93 S8        30.03R
JBLM-MCCHORD   LGT RAIN  60  59  97 SW7       30.04R
PUYALLUP       RAIN      59  59 100 W3        30.05R
JBLM-FT LEWIS  DRIZZLE   61  58  92 S7        30.04R
TACOMA NARROWS LGT RAIN  58  57  97 S7        30.03R
$$

WAZ001-503-506-510-514-515-232100-
NORTH INTERIOR

CITY           SKY/WX    TMP DP  RH WIND       PRES   REMARKS
BELLINGHAM     LGT RAIN  64  59  82 VRB5      29.98S
FRIDAY HARBOR  CLOUDY    58  57  97 SE6       29.98S FOG
EASTSOUND      CLOUDY    63  59  88 SE7       29.95S
PORT ANGELES   LGT RAIN  61  55  81 N3        29.98S
NAS WHIDBEY    LGT RAIN  64  60  87 SE10      29.98S
BURLINGTON     PTSUNNY   63  59  88 SE7       30.00R
$$

WAZ020-022-039-040-504-511-512-232100-
SOUTHWEST INTERIOR

CITY           SKY/WX    TMP DP  RH WIND       PRES   REMARKS
SHELTON        LGT RAIN  61  57  87 SW17G24   30.00R
OLYMPIA        CLOUDY    62  56  80 SW10      30.04R HAZE
CHEHALIS       MOCLDY    63  59  88 SW6       30.06R
KELSO          CLOUDY    61  55  82 S7        30.10R
VANCOUVER      LGT RAIN  60  57  89 S6        30.09R
SCAPPOOSE, OR  LGT RAIN  61  59  93 VRB3      30.07R
PORTLAND, OR   LGT RAIN  60  59  96 SE6       30.09R FOG
$$

WAZ021-516-517-232100-
WASHINGTON COAST

CITY           SKY/WX    TMP DP  RH WIND       PRES   REMARKS
FORKS          CLOUDY    62  56  80 S13G18    29.99S
HOQUIAM        CLOUDY    61  56  83 S9        30.04R
ASTORIA, OR    CLOUDY    61  57  87 S10       30.05S
$$

WAZ019-023-024-040-518-519-232100-
CASCADE MOUNTAINS AND COLUMBIA GORGE

CITY           SKY/WX    TMP DP  RH WIND       PRES   REMARKS
STAMPEDE PASS  NOT AVBL
TROUTDALE, OR  LGT RAIN  61  57  87 SW13      30.08R FOG
THE DALLES, OR LGT RAIN  61  57  87 NW14      30.04R FOG
$$

WAZ026-027-041>044-520-521-232100-
EAST SLOPES

CITY           SKY/WX    TMP DP  RH WIND       PRES   REMARKS
OMAK           PTSUNNY   83  53  35 SE9       29.85F
WENATCHEE      CLOUDY    74  56  53 NW14      29.90F
ELLENSBURG     CLOUDY    67  56  67 NW21G28   29.95F
YAKIMA         CLOUDY    75  56  51 VRB7      29.93S
$$

WAZ028-034-035-232100-
COLUMBIA BASIN

CITY           SKY/WX    TMP DP  RH WIND       PRES   REMARKS
EPHRATA        CLOUDY    79  56  45 SW10      29.88F
MOSES LAKE     PTSUNNY   81  58  45 SW14      29.89F
PASCO          MOSUNNY   83  59  44 W9        29.88F
HERMISTON, OR  MOSUNNY   83  53  35 W17G24    29.91S
$$

WAZ036>038-232100-
NORTHEAST WASHINGTON

CITY           SKY/WX    TMP DP  RH WIND       PRES   REMARKS
SPOKANE GEIGER PTSUNNY   83  51  33 SE8       29.91F
SPOKANE FELTS  MOSUNNY   86  53  32 NE7       29.90F
FAIRCHILD AFB  MOSUNNY   82  53  36 SE8       29.92F
COEURDALENE,ID SUNNY     82  57  42 NE6       29.91F
DEER PARK      MOSUNNY   85  52  32 SE7       29.92F
$$

WAZ029>033-232100-
SOUTHEAST WASHINGTON

CITY           SKY/WX    TMP DP  RH WIND       PRES   REMARKS
PULLMAN        SUNNY     84  53  34 S5        29.94F
LEWISTON, ID   SUNNY     92  57  30 N12       29.83F HX  90
WALLA WALLA    PTSUNNY   82  58  43 SW16      29.92S
PENDLETON, OR  LGT RAIN  78  54  43 W21G26    29.94S
$$


USA.gov is the U.S. government's official web portal to all federal, state and local government web resources and services.